CZ-4 DEB, 26132

Orbit data source: Space-Track

CZ-4 DEB, 26132 is space debris in SSO originally from a launch on Thu, 14 Oct 1999 UTC launched from the Taiyaun Space Center, China (TSC). Debris objects in space refer to the collection of defunct objects orbiting the Earth. Examples of debris include non-operational satellites, rocket bodies, and fragments generated from explosions, collisions, or faulty payload assembly.

Loading next visibility...
Identifier
26132, 1999-057U
Orbit
SSO
Country
Flag of CNCN / PRC
Related business
Manufacturer
Unknown
Mission
Spacecraft
Bus & Motor
Unknown
Mass
Unknown
Launch date (UTC)
1999-10-14 (26 years ago)
Launch vehicle
Unknown
Launch site
Taiyaun Space Center, China (TSC)
Object type
Payload
Rocket body
Debris
Shape & HBR
Unknown shape, 0.1 m
Radar Cross Section
Small (<0.1 m²)

Expand to show TLE details & history
Last TLE update: 18 hours ago

TLE from 18 hours ago
0 CZ-4 DEB
1 26132U 99057U   25350.20922512  .00004528  00000-0  10118-2 0  9994
2 26132  98.6482  73.4960 0105287 116.9792 298.3268 14.53870287341292
Epoch: 2025-12-16T05:01Z
TLE epoch observation values (Epoch: 2025-12-16T05:01:17.050Z)
Latitude
53.44555°
Longitude
-98.69463°
Altitude
686.951 km
Speed
7.537 km/s
True Right ascension
04h 06m 53s
True Declination
53° 16' 45"
Sunlit
Object was in full shadow at epoch
Visualization orbit readout
Latitude
Unknown
Longitude
Unknown
Altitude
Unknown
Speed
Unknown
Apparent Right ascension
Unknown
Apparent Declination
Unknown
Sunlit
N/A
Visualization observer readout
Local Sidereal Time
21:39:00
Azimuth
Unknown
Elevation
Unknown
Doppler factor
Unknown
Orbital elements
Apogee altitude
784.776 km
Perigee altitude
635.515 km
Semi-major axis
7,088.283 km
Eccentricity
0.01053
Inclination
98.6482°
RAAN
73.496°
Arg. of periapsis
116.9792°
True anomaly
297.25816°
Mean anomaly
298.3268°
Eccentric anomaly
297.79314°
Mean motion
3.6369 °/min
Orbital period
98.99 mins
BSTAR
0.0010118
Loading maneuver chart data...
Computing Atmospheric mass density...
Loading historical data...
Loading historical data...
Loading historical data...
Loading historical data...
Loading historical data...
Loading historical data...
Loading historical data...

Documentation

Showing up to 5 results
|